www.pogodaiklimat.ru

Погода и климат >> Архив погоды >> Россия >> Чукотка >> Раучуа


ПОГОДА в Раучуе

  • Прогноз погоды в Раучуе
  • Монитор погоды в Раучуе

АРХИВ ПОГОДЫ в Раучуе

Время (UTC), дата Ветер
(напр.,м/с)
 
Видим.   Явления Облачность Т
(С)
Тd
(С)
f
(%)
Тe
(С)
Тes
(С)
Комфортность P
(гПа)
Po
(гПа)
Тmin
(С)
Tmax
(С)
R
(мм)
R24
(мм)
S
(см)
21 8.09 З 4
{6}
500 м туман {ливн. осадки} ?/? +3.3 +3.3 100 -2 -2 1008.7 1008.1 +3.0 0.7
03 9.09 В 2
{5}
20 км {туман} 10/10 300 м
[Sc]
+4.2 +3.0 92 +1 +1 1008.1 1007.5
09 9.09 В 3
{5}
20 км {ливн. осадки} 10/10 600 м
[Cb cap]
+4.4 +3.7 95 +1 +1 1006.5 1005.9 +4.4 0.8
15 9.09 ЮВ 5
{8}
20 км 10/10 600 м
[Cb cap]
+4.8 +3.8 93 -0 -0 1004.2 1003.6
21 9.09 ЮВ 5
{7}
10 км дымка 10/10 300 м
[St]
+5.0 +4.8 99 0 0 1001.6 1001.0 +4.4
03 10.09 СВ 4
{6}
20 км в посл. час туман 8/6 600 м
[Cb cap Ac trans Ci fib]
+6.4 +5.7 95 +2 +3 999.9 999.3
09 10.09 ЮВ 4
{6}
20 км 9/8 600 м
[Cb cap Ac trans]
+8.6 +7.7 94 +5 +5 999.9 999.3 +13.2
15 10.09 ЮЗ 2
{5}
20 км 4/3 600 м
[Sc Ci fib]
+3.0 +2.7 98 -0 -0 1000.5 999.9
21 10.09 З 9-10
{11}
20 км 10/6 600 м
[Cb cap Ac und]
+4.3 +3.3 93 -2 -2 1002.3 1001.7 +2.2
03 11.09 З 11-13
{15}
10 км слаб. ливневой дождь 10/10 300 м
[Cb cap]
+3.0 +2.5 97 -5 -5 1004.9 1004.3
09 11.09 СЗ 10-13
{15}
10 км слаб. ливневой дождь 10/10 300 м
[Cb cap]
+3.0 +2.5 97 -4 -4 1007.3 1006.7 +4.3 2
15 11.09 СЗ 9-10
{13}
20 км {ливн. осадки} 10/10 300 м
[Cb cap]
+2.8 +1.8 93 -4 -4 1009.3 1008.7
21 11.09 З 9-10
{12}
20 км 8/8 600 м
[Cb cap Ci fib]
+2.3 +1.0 91 -3 -3 1010.9 1010.3 +2.3 0.3
03 12.09 СЗ 7
{11}
20 км 9/9 600 м
[Cb cap]
+3.0 +2.0 93 -3 -3 1011.4 1010.8
09 12.09 СЗ 9-10
{12}
20 км 8/8 600 м
[Cb cap]
+3.4 +2.9 97 -4 -4 1013.2 1012.6 +3.4
15 12.09 З 6
{10}
20 км 8/8 600 м
[Cb cap]
+0.2 -0.7 94 -7 -7 1014.7 1014.1
21 12.09 ЮЗ 3
{7}
20 км 1/1 600 м
[Sc]
+0.6 -1.4 86 -4 -3 1015.8 1015.2 -2.1
03 13.09 СВ 2
{5}
20 км 1/1 600 м
[Sc]
+3.5 +2.0 90 +1 +3 1016.4 1015.8
09 13.09 ЮВ 3
{5}
20 км ясно +1.0 -0.1 92 -4 -4 1016.3 1015.7 +4.2
15 13.09 ЮВ 4
{7}
20 км ясно -1.4 -2.5 92 -7 -7 1015.7 1015.1
21 13.09 ЮВ 6
{9}
20 км ясно +0.1 -1.6 88 -7 -6 1014.4 1013.8 -2.1
03 14.09 ЮВ 8
{12}
20 км 3/0
[Ci fib]
+7.8 +1.1 63 +3 +4 1011.0 1010.4
09 14.09 ЮВ 9-10
{13}
20 км 4/0
[Ac trans Ci fib]
+2.5 +0.4 86 -5 -5 1008.3 1007.7 +8.2
15 14.09 Ю 8
{11}
20 км 8/0
[Ac trans Ci fib]
+0.4 -0.5 94 -7 -7 1007.0 1006.4
21 14.09 Ю 3
{9}
20 км 9/5 600 м
[Cb cap Ac trans Ci fib]
+3.2 +0.6 83 -1 -1 1006.3 1005.7 -0.5
03 15.09 СВ 3
{5}
20 км 9/8 600 м
[Cb cap Ac trans]
+6.6 +2.7 76 +4 +4 1006.4 1005.8
09 15.09 Ю 1
{5}
20 км 9/8 600 м
[Sc Ac trans]
+6.5 +4.7 88 +5 +5 1007.8 1007.2 +8.6
15 15.09 ЮЗ 1
{4}
20 км 8/5 600 м
[Sc Ac trans Ci fib]
+3.7 +2.7 93 +2 +2 1009.8 1009.2

 

Местоположение метеостанции Раучуа (Чукотка, Россия): широта 69.50 долгота 166.50 высота над уровнем моря 5 м.

В архиве по умолчанию представлена погода в Раучуе за последнюю неделю. Архивные данные за месяц целиком и за предыдущие месяцы, начиная с января 2011 года, Вы можете получить, выбрав интересующий диапазон дат из раскрывающегося списка и нажав кнопку "Ввод!".


*Определитесь, кто Вы:
робот инопланетянин человек

Внимание! Время в таблицах - всемирное. Для получения местного времени необходимо прибавить поправку, которая равна 12 ч.

Смотрите также архив погоды в соседних городах и на ближайших метеорологических станциях:

Погода на Айон Острове (Чукотка, Россия) (72 км)
Погода в Певеке (Чукотка, Россия) (145 км)
Погода в Билибино (Чукотка, Россия) (161 км)
Погода в Бухте Амбарчик (Чукотка, Россия) (164 км)
Погода на 21 км (Чукотка, Россия) (169 км)
Погода в Чауне (Чукотка, Россия) (180 км)
Погода в Валькаркае (Чукотка, Россия) (181 км)
Погода в Островном (Чукотка, Россия) (181 км)
Погода в Черском (Якутия, Россия) (223 км)
Погода в Анюйске (Чукотка, Россия) (237 км)

Пояснения к столбцам:

Ветер - указаны скорость ветра в м/с - средняя за 10 мин, порывы в срок и между сроками (в фигурных скобках) и направление, откуда дует ветер: С - северный, СВ - северо-восточный, В - восточный, ЮВ - юго-восточный, Ю - южный, ЮЗ - юго-западный, З - западный, СЗ - северо-западный.
Видимость - горизонтальная дальность видимости в метрах или километрах. При видимости от 1 до 10 км при отсутствии осадков обычно наблюдается дымка, при ухудшении видимости до 1 км и менее - туман. В сухую погоду видимость может ухудшаться дымом, пылью или мглою.
Явления - указаны атмосферные явления, наблюдавшиеся в срок или в последний час перед сроком; фигурными скобками обозначены явления, наблюдавшиеся между сроками (за 1-3 часа до срока); квадратными скобками обозначены град или гололедные отложения с указанием их диаметра в мм.
Облачность - указаны через наклонную черту общая и нижняя облачность в баллах и высота нижней границы облаков в метрах; квадратными скобками обозначены формы облаков: Ci - перистые, Cs - перисто-слоистые, Cc - перисто-кучевые, Ac - высококучевые, As - высокослоистые, Sc - слоисто-кучевые, Ns - слоисто-дождевые, Cu - кучевые, Cb - кучево-дождевые. Подробнее классификацию облаков см. в Атласе облаков (PDF).
T - Температура воздуха - температура, измеренная на высоте 2 м над землей.
Td - Температура точки росы - температура, при понижении до которой содержащийся в воздухе водяной пар достигнет насыщения.
f - Относительная влажность воздуха - влажноcть воздуха, измеренная на высоте 2 м над землей.
Te - Эффективная температура - температура, которую ощущает одетый по сезону человек в тени. Характеристика душности погоды. При расчете учитывается влияние влажности воздуха и скорости ветра на теплоощущения человека.
Tes - Эффективная температура на солнце - температура, которую ощущает человек, с поправкой на солнечный нагрев. Характеристика знойности погоды. Зависит от высоты солнца над горизонтом, облачности и скорости ветра. Ночью, в пасмурную погоду, а также при ветре 12 м/с и более поправка равна нулю.
P - Атмосферное давление - приведенное к уровню моря атмосферное давление.
Po - Атмосферное давление - измеренное на уровне метеостанции атмосферное давление.
Tmin - Минимальная температура - минимум температуры воздуха на высоте 2 м над землей.
Tmax - Максимальная температура - максимум температуры воздуха на высоте 2 м над землей.
R - Количество осадков - Количество выпавших осадков за период времени, мм. При наведении курсора мыши на число - период времени, за который выпало указанное количество осадков.
R24 - Количество осадков - Количество выпавших осадков за 24 часа, мм.
S - Снежный покров - Высота снежного покрова, см. При наведении курсора мыши на число - состояние снежного покрова и степень покрытия местности в баллах.